Terug naar catalogus

GSAT 1

ActiefCommunicatieMEO
NORAD 26745·PAYLOAD·🇮🇳 India

Gelanceerd Apr 18, 2001 vanaf Satish Dhawan Space Centre

Loading…

Volgende Passages (komende 24 uur)

TLE

VersSource: Space-Track

Epoch: Sep 14, 2026, 03:24 UTC

1 26745U 01015A   26257.14213037 -.00000121  00000-0  00000-0 0  9999
2 26745  12.8281   3.1101 0234187 295.4979  76.3222  1.03820638 96451

Volg GSAT 1 in realtime met AllMySat

Download on the App Store